Regional Weather Roundup
Issued by NWS

Home | Current Version | Previous Version | Text Only | Print | Product List | Glossary Off
Versions: 1 2 3 4 5 6 7 8 9 10 11 12 13 14 15 16 17 18 19 20 21 22 23 24 25 26 27 28 29 30 31 32 33 34 35 36 37 38 39 40 41 42 43 44 45 46 47 48 49 50

000
ASUS43 KBIS 041610
RWRND

NORTH DAKOTA REGIONAL WEATHER ROUNDUP
NATIONAL WEATHER SERVICE BISMARCK ND
1100 AM CDT SAT JUL 04 2015

NOTE: "FAIR" INDICATES FEW OR NO CLOUDS BELOW 12,000 FEET WITH NO
SIGNIFICANT WEATHER AND/OR OBSTRUCTIONS TO VISIBILITY.


NDZ001>003-009>011-017-041700-
NORTHWEST NORTH DAKOTA

CITY           SKY/WX    TMP DP  RH WIND       PRES   REMARKS
WILLISTON      SUNNY     80  63  55 SE7       29.74F
MINOT          SUNNY     80  62  54 S10       29.76S HAZE
MINOT AFB      SUNNY     81  71  71 S10       29.74F
$$

NDZ018>021-031>035-040>046-041700-
SOUTHWEST NORTH DAKOTA

CITY           SKY/WX    TMP DP  RH WIND       PRES   REMARKS
BISMARCK       SUNNY     78  68  71 SE8       29.81F
DICKINSON      SUNNY     78  65  63 S10       29.79S HAZE
GARRISON         N/A     76  65  68 S10       29.78F
HETTINGER ARPT SUNNY     77  65  66 SE7       29.82F
$$

NDZ004>008-012>016-024-026-027-054-041700-
NORTHEAST NORTH DAKOTA

CITY           SKY/WX    TMP DP  RH WIND       PRES   REMARKS
GRAND FORKS    CLOUDY    77  67  71 S10       29.83F HAZE
GRND FRKS AFB  SUNNY     77  67  70 S10       29.84S HAZE
DEVILS LAKE    SUNNY     79  66  65 S12       29.81F
$$

NDZ022-023-025-028>030-036>039-047>053-041700-
SOUTHEAST NORTH DAKOTA

CITY           SKY/WX    TMP DP  RH WIND       PRES   REMARKS
FARGO          SUNNY     79  67  66 SE9       29.86F HAZE
JAMESTOWN      SUNNY     80  67  64 S12       29.84F
$$




USA.gov is the U.S. government's official web portal to all federal, state and local government web resources and services.